Ogden, UT

8:23 AM MDT on June 26, 2017 (GMT -0600)
Ogden-Hinckley

Weather History for KOGD - June, 2013

Change the Weather History Date:

Sunday, June 30, 2013

  Actual Average Record
Temperature  
Mean Temperature 90 °F -  
Max Temperature 100 °F 88 °F 102 °F (2002)
Min Temperature 79 °F 56 °F 39 °F (1945)
Cooling Degree Days 24    
Growing Degree Days 40 (Base 50)    
Moisture  
Dew Point 41 °F    
Average Humidity 19    
Maximum Humidity 28    
Minimum Humidity 8    
Precipitation  
Precipitation 0.00 in - - ()
Sea Level Pressure  
Sea Level Pressure 29.82 in    
Wind  
Wind Speed 12 mph (NNE)    
Max Wind Speed 23 mph    
Max Gust Speed 31 mph    
Visibility 10 miles    
Events      
Averages and records for this station are not official NWS values.
T = Trace of Precipitation, MM = Missing Value Source: NWS Daily Summary

Daily Weather History Graph

Daily Weather History Graph

Search for Another Location

Airport or City:

Trip Planner

Search our weather history database for the weather conditions in past years. The results will help you decide how hot, cold, wet, or windy it might be!

Date:

Astronomy

Jun. 30, 2013 Rise Set
Actual Time 5:58 AM MDT 9:04 PM MDT
Civil Twilight 5:25 AM MDT 9:38 PM MDT
Nautical Twilight 4:42 AM MDT 10:21 PM MDT
Astronomical Twilight 3:51 AM MDT 11:12 PM MDT
Moon 1:02 AM MDT (6/30) 2:20 PM MDT (6/30)
Length of Visible Light 16h 13m
Length of Day
15h 06m
Last Quarter, 45% of the Moon is Illuminated
Jun 30
Last Quarter
Jul 8
New
Jul 15
First Quarter
Jul 22
Full
Jul 29
Last Quarter

Hourly Weather History & Observations

Time (MDT) Temp. Dew Point Humidity Pressure Visibility Wind Dir Wind Speed Gust Speed Precip Events Conditions
12:53 AM 87.1 °F 41.0 °F 20% 29.79 in 10.0 mi North 11.5 mph 21.9 mph N/A   Clear
1:53 AM 82.9 °F 43.0 °F 24% 29.80 in 10.0 mi East 6.9 mph - N/A   Clear
2:53 AM 84.0 °F 43.0 °F 24% 29.80 in 10.0 mi ENE 15.0 mph 23.0 mph N/A   Clear
3:53 AM 82.9 °F 43.0 °F 24% 29.81 in 10.0 mi ENE 18.4 mph 24.2 mph N/A   Clear
4:53 AM 81.0 °F 43.0 °F 26% 29.82 in 10.0 mi East 10.4 mph 24.2 mph N/A   Clear
5:53 AM 81.0 °F 42.1 °F 25% 29.82 in 10.0 mi ENE 23.0 mph 31.1 mph N/A   Clear
6:53 AM 79.0 °F 43.0 °F 28% 29.85 in 10.0 mi ENE 10.4 mph - N/A   Clear
7:53 AM 82.0 °F 44.1 °F 26% 29.86 in 10.0 mi NE 9.2 mph - N/A   Clear
8:53 AM 84.0 °F 46.0 °F 26% 29.89 in 10.0 mi NNE 11.5 mph - N/A   Clear
9:53 AM 87.1 °F 46.0 °F 24% 29.90 in 10.0 mi NNE 13.8 mph - N/A   Clear
10:53 AM 90.0 °F 46.0 °F 22% 29.89 in 10.0 mi North 10.4 mph - N/A   Clear
11:53 AM 91.0 °F 48.9 °F 23% 29.87 in 10.0 mi WNW 8.1 mph - N/A   Clear
12:53 PM 93.9 °F 46.9 °F 20% 29.86 in 10.0 mi NNW 6.9 mph - N/A   Clear
1:53 PM 95.0 °F 46.9 °F 19% 29.85 in 10.0 mi NNW 9.2 mph - N/A   Clear
2:53 PM 97.0 °F 46.0 °F 18% 29.83 in 10.0 mi NNW 8.1 mph - N/A   Clear
3:53 PM 100.0 °F 28.0 °F 8% 29.81 in 10.0 mi NNW 9.2 mph 18.4 mph N/A   Clear
4:53 PM 100.9 °F 33.1 °F 9% 29.78 in 10.0 mi NNW 12.7 mph - N/A   Clear
5:53 PM 100.0 °F 30.0 °F 9% 29.77 in 10.0 mi NNE 10.4 mph 19.6 mph N/A   Clear
6:53 PM 99.0 °F 32.0 °F 10% 29.76 in 10.0 mi NE 16.1 mph - N/A   Clear
7:53 PM 97.0 °F 32.0 °F 10% 29.76 in 10.0 mi NNE 15.0 mph - N/A   Clear
8:53 PM 91.9 °F 36.0 °F 14% 29.78 in 10.0 mi NE 6.9 mph - N/A   Clear
9:53 PM 89.1 °F 37.9 °F 16% 29.80 in 10.0 mi NNE 9.2 mph - N/A   Clear
10:53 PM 87.1 °F 37.9 °F 18% 29.81 in 10.0 mi NE 11.5 mph - N/A   Clear
11:53 PM 82.9 °F 39.0 °F 21% 29.83 in 10.0 mi East 4.6 mph - N/A   Clear